Weather in Talovaya

Russia / Voronezh Oblast     51°07′09″N   40°43′31″E
temp.,
°C
wind,
m/s
gust,
m/s
humid.,
%
clouds,
%
prec.,
mm/h
press.,
hPa
HPBL,
m
28 february, sun
sun2800:00−4n588357 0.0 1012513
03:00−5nnw478448 0.0 1014475
06:00−5nnw368556 0.0 1015430
09:00−5nnw358468 0.0 1016446
12:00−2nw467999 0.0 1016588
15:00−1nw577595 0.0 1016750
18:00−2nnw358489 0.0 1017167
21:00−3nne249181 0.0 1019192
1 march, mon
mon100:00−4nne249390 0.0 1020270
03:00−5nne239286 0.0 1022198
06:00−6nne348949 0.0 1023264
09:00−6nne348234 0.0 1026355
12:00−4n336981 0.0 1026537
15:00−2nnw336682 0.0 1027638
18:00−3wnw237532 0.0 102691
21:00−3wsw378125 0.0 1026232
2 march, tue
tue200:00−2wsw41083100 0.0 1024571
03:00−2wsw61378100 0.0 1022555
06:00−1wsw81489100 0.1 1018596
09:000wsw91591100 1.0 1015643
12:00+1w91597100 1.3 1013791
15:00+1wnw81397100 1.8 1011771
18:000wnw5129095 0.8 1011643
21:00−1nw5139282 0.9 1013526
3 march, wed
wed300:00−1wnw6129277 0.0 1013542
03:00−2wnw6129386 0.1 1013525
06:00−2nw61193100 0.1 1013645
09:00−2nw71186100 0.3 1015920
12:00−1nw81077100 0.1 10161004
15:000nnw8126997 0.1 10181244
18:00−2nw5117758 0.0 1019512
21:00−2nw5108578 0.1 1021715
4 march, thu
thu400:00−2nw497997 0.1 1022509
03:00−3wnw368796 0.1 1022200
06:00−3wsw348182 0.0 102293
09:00−2wsw488541 0.0 1022490
12:00+1wsw697913 0.0 1020667
15:00+3wsw710658 0.0 1018945
18:00+1sw613765 0.0 1016362
21:00+1sw716772 0.0 1015464